This is the latest recevied weather packets stored in our database for station/object JR5YHL-13. If no packets are shown the sender has not sent any weather packets the latest 10 day(s).
| Time | Temp. | Humidity | Pressure | Rain* | Wind** | Luminosity | Snow |
|---|---|---|---|---|---|---|---|
| 1778038110 | 25° C | 51% | 1017.6 hPa | 0 mm | - | - | - |
| 1778037512 | 25° C | 50% | 1017.9 hPa | 0 mm | - | - | - |
| 1778036915 | 25.56° C | 48% | 1018.3 hPa | 0 mm | - | - | - |
| 1778036317 | 25° C | 50% | 1018.3 hPa | 0 mm | - | - | - |
| 1778035719 | 24.44° C | 48% | 1018.6 hPa | 0 mm | - | - | - |
| 1778035121 | 24.44° C | 51% | 1018.3 hPa | 0 mm | - | - | - |
| 1778034524 | 23.33° C | 51% | 1018.7 hPa | 0 mm | - | - | - |
| 1778033926 | 23.33° C | 51% | 1019 hPa | 0 mm | - | - | - |
| 1778033328 | 25° C | 49% | 1018.9 hPa | 0 mm | - | - | - |
| 1778032731 | 24.44° C | 48% | 1019 hPa | 0 mm | - | - | - |
| 1778032133 | 23.89° C | 50% | 1019.3 hPa | 0 mm | - | - | - |
| 1778031535 | 22.78° C | 51% | 1019.3 hPa | 0 mm | - | - | - |
| 1778030937 | 23.33° C | 52% | 1019.3 hPa | 0 mm | - | - | - |
| 1778030340 | 23.33° C | 51% | 1019.3 hPa | 0 mm | - | - | - |
| 1778029742 | 23.33° C | 52% | 1019.3 hPa | 0 mm | - | - | - |
| 1778029144 | 22.78° C | 53% | 1019.3 hPa | 0 mm | - | - | - |
| 1778028547 | 22.78° C | 54% | 1019.3 hPa | 0 mm | - | - | - |
| 1778027949 | 22.22° C | 55% | 1019.5 hPa | 0 mm | - | - | - |
| 1778027351 | 21.67° C | 56% | 1019.6 hPa | 0 mm | - | - | - |
| 1778026754 | 21.11° C | 56% | 1019.6 hPa | 0 mm | - | - | - |
| 1778026156 | 21.11° C | 59% | 1019.7 hPa | 0 mm | - | - | - |
| 1778025558 | 20.56° C | 59% | 1019.7 hPa | 0 mm | - | - | - |
| 1778024960 | 20° C | 61% | 1019.8 hPa | 0 mm | - | - | - |
| 1778024363 | 19.44° C | 63% | 1019.8 hPa | 0 mm | - | - | - |
| 1778023765 | 18.89° C | 64% | 1019.9 hPa | 0 mm | - | - | - |
* Rain latest hour (hover to see other rain measurements)
** Current wind speed in m/s (hover to see current wind gust speed)